988  
ASUS43 KIWX 161310  
RWRIWX  
 
KIWX WEATHER ROUNDUP  
NATIONAL WEATHER SERVICE NORTHERN INDIANA  
900 AM EDT SAT OCT 16 2021  
 
NOTE: "FAIR" INDICATES FEW OR NO CLOUDS BELOW 12,000 FEET WITH NO  
SIGNIFICANT WEATHER AND/OR S TO VISIBILITY
.  
 
* THESE STATIONS ARE NOT UNDER NWS QUALITY CONTROL. THEY ALSO MAY NOT  
REPORT WEATHER SUCH AS PRECIPITATION OR FOG.
 
 
INZ001>027-161400-  
NORTHERN INDIANA  
 
CITY SKY/WX TMP DP RH WIND PRES REMARKS
 
GARY* CLEAR 45 37 76 W12 30.01R  
VALPARAISO CLEAR 46 38 73 W9 29.99R  
MICHIGAN CITY* MOCLDY 50 39 66 W12 29.97R  
LAPORTE* CLEAR 46 42 84 W7 29.97R  
KNOX* CLEAR 45 41 87 W10 29.97R  
SOUTH BEND MOSUNNY 51 41 68 W10 29.95R  
ELKHART* SUNNY 48 46 93 W9 29.93R  
GOSHEN SUNNY N/A N/A N/A W10 29.93R  
MONTICELLO* SUNNY 44 40 84 W8 30.01R  
LOGANSPORT* SUNNY 45 39 81 W9 30.01R  
ROCHESTER* SUNNY 46 41 81 W9 29.97R  
PLYMOUTH* SUNNY 46 41 81 W8 29.95R  
WARSAW* SUNNY 46 43 87 W12 29.94R  
AUBURN* SUNNY 50 46 87 W9 29.91R  
FORT WAYNE MOSUNNY 50 45 83 W10 29.93R  
PERU/GRISSOM SUNNY 46 40 81 W14 29.97R  
 

 
INZ028>050-161400-  
CENTRAL INDIANA  
 
CITY SKY/WX TMP DP RH WIND PRES REMARKS
 
LAFAYETTE SUNNY 44 40 85 W8 30.03R  
KOKOMO* SUNNY 46 44 93 W13 29.99R  
MARION* SUNNY N/A N/A N/A W15G21 29.98R  
MUNCIE* SUNNY 50 43 77 W9 29.97R  
PORTLAND* FAIR 50 43 76 W12G18 29.95R  
INDIANAPOLIS SUNNY 47 40 76 W13 30.03R  
 

 
MIZ043>046-050>051-056>058-064>065-071>073-077>080-161400-  
SOUTHWEST LOWER MICHIGAN  
 
CITY SKY/WX TMP DP RH WIND PRES REMARKS
 
BATTLE CREEK MOSUNNY 50 45 83 W8 29.88R  
BENTON HARBOR MOCLDY 53 40 61 NW17G25 29.93R  
COLDWATER* SUNNY 50 47 88 W9 29.89R  
HILLSDALE* MOSUNNY 50 48 93 W7 29.87R  
HOLLAND MOCLDY 53 41 63 NW10G22 29.89R  
GRAND RAPIDS MOSUNNY 48 44 86 W7 29.87R  
KALAMAZOO PTSUNNY 51 45 79 W7 29.90R  
STURGIS* SUNNY 50 49 96 W6 29.90R  
THREE RIVERS* RAIN 49 46 87 W7 29.91R  
 

 
OHZ001>008-015>018-024>025-161400-  
NORTHWEST OHIO  
 
CITY SKY/WX TMP DP RH WIND PRES REMARKS
 
WAUSEON* PTSUNNY 52 52 100 W10 29.87R  
DEFIANCE PTSUNNY 53 48 83 W6 29.89R  
FINDLAY PTSUNNY 54 50 86 W10 29.87R  
TOLEDO EXPRESS CLOUDY 52 48 86 W9 29.86R  
VAN WERT* N/A 52 46 82 MISG N/A  
LIMA CLOUDY 53 49 86 W10 29.89R  
 

 
AND FOR LAKE MICHIGAN COASTAL AND OPEN LAKE BUOY OBSERVATIONS  
 
STATION/POSITION TEMP WIND PRES VSBY WAVE
 
AIR SEA DIR/SP/G HT/PER  
(F) (DEG/KT/KT) (MB) (MI) (FT/S)  
CALUMET HARBOR 260/ 4/ 7 1014.2R  
MICHIGAN CITY 52 290/ 22/ 25 1015.3R  
BURNS HARBOR 53 310/ 10/ 14 1015.2R  
SAINT JOSEPH 55 290/ 16/ 22 1014.2  
SOUTH LAKE BUOY 51 65 300/ 19/ 23 1012.9R 5/ 6  
4 MI NW BRIDGMAN 54 66 310/ 19/ 25 1014.5R 6/ 6  
 

 

 
 
 
CLICK HERE TO GO TO PREVIOUS BULLETINS.

The Nexlab IN Page
The Nexlab OH Page
The Nexlab MI Page Main Text Page